{"data":{"norad_id":68705,"intl_designator":"2026-081G","name":"STARLINK-35369","alt_names":[],"object_type":"PAYLOAD","status":"ACTIVE","operator":null,"country":"US","launch_date":"2026-04-14","launch_site_code":"AFETR","launch_vehicle":null,"mission":null,"orbit_class":"UNKNOWN","rcs_meters":null,"size_class":null,"mass_kg":null,"dimensions":null,"purposes":["comms"],"wikipedia_slug":null,"has_3d_model":false,"image_url":null,"decayed_at":null,"tle_current":{"epoch":"2026-09-18T03:24:55.329120Z","epoch_age_seconds":247471,"freshness":"STALE","line1":"1 68705U 26081G   26261.14230705  .00009557  00000+0  29365-3 0  9995","line2":"2 68705  53.1587 216.9496 0001220  84.3101 275.8040 15.34396894 24257","mean_motion":15.34396894,"eccentricity":0.000122,"inclination_deg":53.1587,"raan_deg":216.9496,"arg_perigee_deg":84.3101,"mean_anomaly_deg":275.804,"bstar":0.00029365,"rev_number":2425,"period_min":93.847948052481,"perigee_km":461.87788827366,"apogee_km":463.54705554481,"semimajor_km":6840.8494719092,"source":"CELESTRAK","updated_at":"2026-09-20T09:00:43.958152Z"}}}